EW8073 Weather Reports


Display with metric or nautical units.
time (UTC)temp
F
wind
direction
speed
MPH
gust
MPH
rain 1hr
in
rain 24hr
in
rain mn
in
humidity
%
barometer
mb
20260510024030 53 319 4.0 10.0 0.00 0.00 0.00 70 1020.0
20260510023523 53 322 4.0 10.0 0.00 0.00 0.00 70 1019.5
20260510023028 53 63 4.0 16.0 0.00 0.00 0.00 70 1019.2
20260510022512 53 344 5.0 16.0 0.00 0.00 0.00 69 1018.7
20260510021500 54 342 5.0 16.0 0.00 0.00 0.00 67 1018.3
20260510020953 54 290 4.0 14.0 0.00 0.00 0.00 67 1018.0
20260510020448 54 351 5.0 14.0 0.00 0.00 0.00 66 1017.9
20260510015942 55 315 5.0 12.0 0.00 0.00 0.00 65 1017.8
20260510015436 55 39 5.0 14.0 0.00 0.00 0.00 64 1017.4
20260510014936 55 15 5.0 14.0 0.00 0.00 0.00 64 1017.1
20260510014437 55 299 6.0 14.0 0.00 0.00 0.00 63 1016.9
20260510013937 56 23 7.0 18.0 0.00 0.00 0.00 62 1016.7
20260510013437 56 304 7.0 18.0 0.00 0.00 0.00 61 1016.5
20260510012436 58 355 6.0 17.0 0.00 0.00 0.00 57 1016.0
20260510011436 60 325 5.0 16.0 0.00 0.00 0.00 53 1015.4
20260510010934 61 355 5.0 11.0 0.00 0.00 0.00 51 1015.1
20260510010435 62 338 5.0 11.0 0.00 0.00 0.00 48 1015.2
20260510005935 64 10 5.0 13.0 0.00 0.00 0.00 46 1014.8
20260510004935 68 320 5.0 14.0 0.00 0.00 0.00 40 1014.1
20260510003432 73 128 0.0 1.0 0.00 0.00 0.00 27 1012.5
20260510002932 73 103 0.0 0.0 0.00 0.00 0.00 26 1012.3
20260510002432 74 104 0.0 1.0 0.00 0.00 0.00 26 1012.0
20260510001433 74 105 0.0 0.0 0.00 0.00 0.00 25 1011.9
20260510000933 74 106 0.0 1.0 0.00 0.00 0.00 25 1011.9
20260510000433 74 117 0.0 1.0 0.00 0.00 0.00 25 1011.8
20260509235932 75 115 0.0 4.0 0.00 0.00 0.00 26 1011.7
20260509235434 74 75 1.0 6.0 0.00 0.00 0.00 26 1011.7
20260509234932 74 76 1.0 6.0 0.00 0.00 0.00 26 1011.6
20260509233933 75 102 0.0 12.0 0.00 0.00 0.00 25 1011.6
20260509233432 76 56 0.0 0.0 0.00 0.00 0.00 24 1011.3
20260509232435 76 57 0.0 0.0 0.00 0.00 0.00 20 1011.1
20260509231435 77 321 0.0 1.0 0.00 0.00 0.00 20 1011.2
20260509230932 77 5 0.0 0.0 0.00 0.00 0.00 19 1011.1
20260509230434 77 65 0.0 3.0 0.00 0.00 0.00 20 1011.1
20260509225933 78 65 0.0 3.0 0.00 0.00 0.00 20 1011.1
20260509225432 78 351 1.0 4.0 0.00 0.00 0.00 20 1011.2
20260509224932 77 80 1.0 6.0 0.00 0.00 0.00 20 1011.2
20260509224431 77 84 1.0 6.0 0.00 0.00 0.00 19 1011.2
20260509223931 77 336 1.0 5.0 0.00 0.00 0.00 20 1011.1
20260509223430 77 80 1.0 4.0 0.00 0.00 0.00 20 1011.0
20260509222427 79 84 1.0 5.0 0.00 0.00 0.00 18 1010.9
20260509221925 78 80 0.0 4.0 0.00 0.00 0.00 20 1010.9
20260509221426 79 62 0.0 0.0 0.00 0.00 0.00 19 1011.0
20260509220926 79 48 0.0 0.0 0.00 0.00 0.00 19 1011.0
20260509215926 78 355 1.0 3.0 0.00 0.00 0.00 19 1011.1
20260509214925 79 99 0.0 6.0 0.00 0.00 0.00 20 1011.0
20260509214424 79 71 0.0 1.0 0.00 0.00 0.00 20 1011.1
20260509213923 78 35 0.0 0.0 0.00 0.00 0.00 20 1011.1
20260509213420 78 55 0.0 3.0 0.00 0.00 0.00 19 1011.1
20260509212918 79 82 0.0 3.0 0.00 0.00 0.00 20 1011.2
20260509212416 79 90 1.0 6.0 0.00 0.00 0.00 21 1011.2
20260509211914 78 82 2.0 6.0 0.00 0.00 0.00 21 1011.3
20260509211414 78 108 2.0 7.0 0.00 0.00 0.00 20 1011.5
20260509210414 78 67 1.0 10.0 0.00 0.00 0.00 22 1011.5
20260509205915 78 123 1.0 10.0 0.00 0.00 0.00 21 1011.5
20260509205413 78 92 1.0 6.0 0.00 0.00 0.00 21 1011.5
20260509204908 78 84 1.0 7.0 0.00 0.00 0.00 22 1011.5
20260509204401 78 46 2.0 8.0 0.00 0.00 0.00 22 1011.7
20260509203855 78 295 2.0 8.0 0.00 0.00 0.00 22 1011.9
20260509203350 78 35 1.0 4.0 0.00 0.00 0.00 21 1011.7
20260509202338 77 29 1.0 7.0 0.00 0.00 0.00 21 1011.9
20260509201326 77 80 0.0 7.0 0.00 0.00 0.00 23 1012.2
20260509200820 77 54 1.0 5.0 0.00 0.00 0.00 22 1012.2
20260509200313 77 57 2.0 7.0 0.00 0.00 0.00 23 1012.4
20260509195808 77 66 2.0 8.0 0.00 0.00 0.00 23 1012.5
20260509195302 77 47 1.0 8.0 0.00 0.00 0.00 22 1012.3
20260509194756 76 350 1.0 6.0 0.00 0.00 0.00 23 1012.3
20260509194249 76 81 2.0 7.0 0.00 0.00 0.00 23 1012.3
20260509193743 77 83 2.0 8.0 0.00 0.00 0.00 23 1012.3
20260509192226 76 46 2.0 8.0 0.00 0.00 0.00 24 1012.4
20260509191725 76 58 2.0 8.0 0.00 0.00 0.00 22 1012.5
20260509191256 76 73 1.0 7.0 0.00 0.00 0.00 23 1012.4
20260509190726 76 71 1.0 4.0 0.00 0.00 0.00 23 1012.5
20260509190225 76 294 1.0 6.0 0.00 0.00 0.00 23 1012.5
20260509184726 75 72 2.0 9.0 0.00 0.00 0.00 25 1012.6
20260509184224 75 53 2.0 11.0 0.00 0.00 0.00 25 1012.6
20260509183723 75 64 2.0 11.0 0.00 0.00 0.00 25 1012.7
20260509182723 75 199 2.0 9.0 0.00 0.00 0.00 25 1012.7
20260509181722 74 86 1.0 8.0 0.00 0.00 0.00 27 1012.7
20260509181220 74 77 2.0 9.0 0.00 0.00 0.00 26 1012.9
20260509180219 74 304 2.0 7.0 0.00 0.00 0.00 27 1012.7
20260509175718 74 45 2.0 7.0 0.00 0.00 0.00 26 1012.9
20260509175218 74 355 3.0 9.0 0.00 0.00 0.00 28 1012.9
20260509174717 73 77 3.0 9.0 0.00 0.00 0.00 27 1012.7
20260509174218 73 94 3.0 7.0 0.00 0.00 0.00 27 1012.9
20260509173218 73 30 2.0 9.0 0.00 0.00 0.00 28 1012.7
20260509172718 73 79 3.0 9.0 0.00 0.00 0.00 29 1012.7
20260509171717 73 117 4.0 13.0 0.00 0.00 0.00 30 1012.6
20260509171218 73 104 3.0 10.0 0.00 0.00 0.00 30 1012.7
20260509170719 73 95 3.0 10.0 0.00 0.00 0.00 30 1012.7
20260509165717 73 114 2.0 5.0 0.00 0.00 0.00 24 1012.6
20260509165218 73 346 3.0 8.0 0.00 0.00 0.00 24 1012.6
20260509164718 73 350 2.0 8.0 0.00 0.00 0.00 24 1012.6
20260509163720 72 0 0.0 2.0 0.00 0.00 0.00 26 1012.7
20260509163215 72 62 0.0 0.0 0.00 0.00 0.00 26 1012.6
20260509162708 71 57 0.0 0.0 0.00 0.00 0.00 25 1012.6
20260509161657 71 325 0.0 0.0 0.00 0.00 0.00 25 1012.6
20260509161150 70 325 0.0 0.0 0.00 0.00 0.00 27 1012.6
20260509160647 70 325 0.0 0.0 0.00 0.00 0.00 27 1012.6
20260509160146 69 325 0.0 0.0 0.00 0.00 0.00 27 1012.6
20260509155643 69 325 0.0 0.0 0.00 0.00 0.00 29 1012.5
20260509155143 69 325 0.0 0.0 0.00 0.00 0.00 29 1012.5
20260509154642 68 230 0.0 0.0 0.00 0.00 0.00 31 1012.5
20260509153639 67 229 0.0 0.0 0.00 0.00 0.00 32 1012.7
20260509151640 65 225 0.0 0.0 0.00 0.00 0.00 33 1013.0
20260509151137 65 223 0.0 0.0 0.00 0.00 0.00 35 1013.0
20260509150635 65 221 0.0 0.0 0.00 0.00 0.00 34 1013.0
20260509150135 64 213 0.0 0.0 0.00 0.00 0.00 37 1012.9
20260509145635 64 213 0.0 0.0 0.00 0.00 0.00 38 1013.0
20260509145136 63 212 0.0 0.0 0.00 0.00 0.00 41 1013.0
20260509144636 62 211 0.0 0.0 0.00 0.00 0.00 43 1013.0
20260509144135 61 211 0.0 0.0 0.00 0.00 0.00 46 1013.0
20260509143636 60 211 0.0 0.0 0.00 0.00 0.00 49 1013.0
20260509143137 60 211 0.0 0.0 0.00 0.00 0.00 54 1013.0
20260509142635 59 211 0.0 0.0 0.00 0.00 0.00 58 1012.9
20260509142136 57 211 0.0 0.0 0.00 0.00 0.00 60 1012.7
20260509141635 55 211 0.0 0.0 0.00 0.00 0.00 63 1012.9
20260509141136 55 211 0.0 0.0 0.00 0.00 0.00 63 1012.7
20260509140636 54 211 0.0 0.0 0.00 0.00 0.00 64 1012.9
20260509140135 54 211 0.0 0.0 0.00 0.00 0.00 64 1012.7
20260509135635 53 211 0.0 0.0 0.00 0.00 0.00 65 1012.9
20260509135135 53 211 0.0 0.0 0.00 0.00 0.00 64 1012.9
20260509134636 52 211 0.0 0.0 0.00 0.00 0.00 64 1012.6
20260509134128 52 211 0.0 0.0 0.00 0.00 0.00 64 1012.6
20260509133623 52 211 0.0 0.0 0.00 0.00 0.00 64 1012.6
20260509133116 51 211 0.0 0.0 0.00 0.00 0.00 64 1012.6
20260509132611 51 211 0.0 0.0 0.00 0.00 0.00 64 1012.6
20260509132103 51 211 0.0 0.0 0.00 0.00 0.00 64 1012.5
20260509131050 50 211 0.0 0.0 0.00 0.00 0.00 64 1012.3
20260509130544 50 211 0.0 0.0 0.00 0.00 0.00 64 1012.3
20260509130040 50 211 0.0 0.0 0.00 0.00 0.00 63 1012.0
20260509125534 50 211 0.0 0.0 0.00 0.00 0.00 63 1011.9
20260509125034 50 211 0.0 0.0 0.00 0.00 0.00 63 1011.8
20260509124531 49 211 0.0 0.0 0.00 0.00 0.00 63 1011.8
20260509123527 49 211 0.0 0.0 0.00 0.00 0.00 63 1011.7
20260509122523 49 211 0.0 0.0 0.00 0.00 0.00 64 1011.6
20260509122025 49 211 0.0 0.0 0.00 0.00 0.00 64 1011.6
20260509121521 49 211 0.0 0.0 0.00 0.00 0.00 64 1011.6
20260509121021 49 211 0.0 0.0 0.00 0.00 0.00 64 1011.6
20260509120521 49 211 0.0 0.0 0.00 0.00 0.00 64 1011.7
20260509120021 49 211 0.0 0.0 0.00 0.00 0.00 64 1011.5
20260509115521 49 211 0.0 0.0 0.00 0.00 0.00 64 1011.3
20260509115019 49 211 0.0 0.0 0.00 0.00 0.00 64 1011.2
20260509114519 49 211 0.0 0.0 0.00 0.00 0.00 64 1011.2
20260509114020 49 211 0.0 0.0 0.00 0.00 0.00 64 1011.1
20260509113519 49 211 0.0 0.0 0.00 0.00 0.00 65 1011.0
20260509113019 49 211 0.0 0.0 0.00 0.00 0.00 65 1011.1
20260509112517 49 211 0.0 0.0 0.00 0.00 0.00 65 1011.0
20260509112017 49 211 0.0 0.0 0.00 0.00 0.00 65 1011.0
20260509111510 49 211 0.0 0.0 0.00 0.00 0.00 66 1010.9
20260509111005 49 211 0.0 0.0 0.00 0.00 0.00 66 1010.9
20260509110459 49 211 0.0 0.0 0.00 0.00 0.00 66 1010.9
20260509104940 49 211 0.0 0.0 0.00 0.00 0.00 66 1010.8
20260509104434 49 211 0.0 0.0 0.00 0.00 0.00 66 1010.9
20260509103929 49 211 0.0 0.0 0.00 0.00 0.00 66 1010.9
20260509103423 50 211 0.0 0.0 0.00 0.00 0.00 66 1010.9
20260509102920 50 211 0.0 0.0 0.00 0.00 0.00 66 1010.9
20260509102410 50 211 0.0 0.0 0.00 0.00 0.00 66 1010.8
20260509101904 50 211 0.0 0.0 0.00 0.00 0.00 66 1010.8
20260509101359 50 211 0.0 0.0 0.00 0.00 0.00 65 1010.9
20260509100852 50 211 0.0 0.0 0.00 0.00 0.00 65 1011.0
20260509100348 50 211 0.0 0.0 0.00 0.00 0.00 65 1011.1
20260509095841 51 211 0.0 0.0 0.00 0.00 0.00 64 1011.1
20260509094830 51 211 0.0 0.0 0.00 0.00 0.00 64 1011.1
20260509093816 51 211 0.0 0.0 0.00 0.00 0.00 64 1010.9
20260509093310 51 211 0.0 0.0 0.00 0.00 0.00 64 1010.9
20260509092300 51 211 0.0 0.0 0.00 0.00 0.00 64 1010.9
20260509091753 52 211 0.0 0.0 0.00 0.00 0.00 64 1010.8
20260509091246 52 211 0.0 0.0 0.00 0.00 0.00 63 1010.6
20260509090740 52 211 0.0 0.0 0.00 0.00 0.00 63 1010.6
20260509090236 52 208 0.0 0.0 0.00 0.00 0.00 63 1010.6
20260509085728 52 208 0.0 0.0 0.00 0.00 0.00 63 1010.5
20260509084716 53 208 0.0 0.0 0.00 0.00 0.00 62 1010.6
20260509084210 53 208 0.0 0.0 0.00 0.00 0.00 61 1010.6
20260509083705 54 208 0.0 0.0 0.00 0.00 0.00 61 1010.6
20260509082654 54 208 0.0 0.0 0.00 0.00 0.00 60 1010.6
20260509082147 55 208 0.0 0.0 0.00 0.00 0.00 60 1010.6
20260509081640 55 208 0.0 0.0 0.00 0.00 0.00 60 1010.6
20260509081135 55 208 0.0 0.0 0.00 0.00 0.00 59 1010.5
20260509075617 55 208 0.0 0.0 0.00 0.00 0.00 59 1010.8
20260509075111 55 208 0.0 0.0 0.00 0.00 0.00 58 1010.8
20260509074605 56 208 0.0 0.0 0.00 0.00 0.00 58 1010.8
20260509074059 56 207 0.0 0.0 0.00 0.00 0.00 57 1010.9
20260509073553 56 207 0.0 0.0 0.00 0.00 0.00 57 1010.8
20260509073048 56 207 0.0 0.0 0.00 0.00 0.00 57 1010.8
20260509072540 56 207 0.0 0.0 0.00 0.00 0.00 58 1010.8
20260509072034 55 204 0.0 0.0 0.00 0.00 0.00 58 1010.8
20260509071528 55 204 0.0 0.0 0.00 0.00 0.00 58 1010.8
20260509071023 55 202 0.0 0.0 0.00 0.00 0.00 58 1010.9
20260509070021 55 139 0.0 0.0 0.00 0.00 0.00 59 1010.9
20260509065521 55 138 0.0 0.0 0.00 0.00 0.00 59 1011.0
20260509065023 55 138 0.0 0.0 0.00 0.00 0.00 59 1011.1
20260509064519 55 135 0.0 0.0 0.00 0.00 0.00 59 1011.1
20260509064017 55 135 0.0 0.0 0.00 0.00 0.00 59 1011.1
20260509063516 55 135 0.0 0.0 0.00 0.00 0.00 59 1011.2
20260509063017 55 68 0.0 0.0 0.00 0.00 0.00 59 1011.2
20260509062515 55 68 0.0 0.0 0.00 0.00 0.00 59 1011.2
20260509062014 55 67 0.0 0.0 0.00 0.00 0.00 59 1011.3
20260509061515 55 67 0.0 0.0 0.00 0.00 0.00 59 1011.5
20260509061012 55 67 0.0 0.0 0.00 0.00 0.00 58 1011.5
20260509060513 55 67 0.0 0.0 0.00 0.00 0.00 58 1011.6
20260509055505 55 67 0.0 0.0 0.00 0.00 0.00 58 1011.6
20260509054959 55 67 0.0 0.0 0.00 0.00 0.00 58 1011.6
20260509054454 55 67 0.0 0.0 0.00 0.00 0.00 58 1011.7
20260509053947 55 67 0.0 0.0 0.00 0.00 0.00 58 1011.8
20260509052934 56 67 0.0 0.0 0.00 0.00 0.00 58 1011.8
20260509051924 56 67 0.0 0.0 0.00 0.00 0.00 58 1012.0
20260509051416 56 67 0.0 0.0 0.00 0.00 0.00 58 1012.2
20260509050911 56 67 0.0 0.0 0.00 0.00 0.00 58 1012.2
20260509050405 56 67 0.0 0.0 0.00 0.00 0.00 58 1012.3
20260509045405 56 67 0.0 0.0 0.00 0.00 0.00 57 1012.3
20260509043902 57 67 0.0 0.0 0.00 0.00 0.00 55 1012.6
20260509043403 57 67 0.0 0.0 0.00 0.00 0.00 54 1012.7
20260509042903 58 67 0.0 0.0 0.00 0.00 0.00 54 1012.9
20260509042358 58 67 0.0 0.0 0.00 0.00 0.00 54 1012.9
20260509041859 58 67 0.0 0.0 0.00 0.00 0.00 53 1013.0
20260509041359 58 67 0.0 0.0 0.00 0.00 0.00 53 1013.0
20260509040858 58 67 0.0 0.0 0.00 0.00 0.00 52 1013.0
20260509040358 59 67 0.0 0.0 0.00 0.00 0.00 52 1013.0
20260509035900 59 67 0.0 0.0 0.00 0.00 0.00 51 1013.1
20260509034856 59 67 0.0 0.0 0.00 0.00 0.00 49 1013.1
20260509034356 60 67 0.0 0.0 0.00 0.00 0.00 49 1013.1
20260509033858 60 67 0.0 0.0 0.00 0.00 0.00 48 1013.1
20260509033359 60 67 0.0 0.0 0.00 0.00 0.00 48 1013.1
20260509031841 61 66 0.0 0.0 0.00 0.00 0.00 46 1013.0
20260509031335 61 66 0.0 0.0 0.00 0.00 0.00 46 1013.0
20260509030829 61 66 0.0 0.0 0.00 0.00 0.00 46 1013.0
20260509030325 62 66 0.0 0.0 0.00 0.00 0.00 45 1013.0
20260509025817 62 66 0.0 0.0 0.00 0.00 0.00 45 1012.9
20260509025312 62 66 0.0 0.0 0.00 0.00 0.00 44 1012.7